Weather History for Fort Sill, OK

Change the Weather History Date:

Friday, March 29, 2013

  Actual Average Record
Temperature  
Mean Temperature 64 °F -  
Max Temperature 75 °F 67 °F 93 °F (1967)
Min Temperature 54 °F 44 °F 23 °F (1987)
Degree Days  
Heating Degree Days 1    
Growing Degree Days 14 (Base 50)    
Moisture  
Dew Point 57 °F    
Average Humidity 75    
Maximum Humidity 98    
Minimum Humidity 58    
Precipitation  
Precipitation 0.00 in - - ()
Sea Level Pressure  
Sea Level Pressure 30.02 in    
Wind  
Wind Speed 11 mph (SSE)    
Max Wind Speed 24 mph    
Max Gust Speed 29 mph    
Visibility 10 miles    
Events Rain    
Averages and records for this station are not official NWS values.
T = Trace of Precipitation, MM = Missing Value Source: NWS Daily Summary

Daily Weather History Graph

Daily Weather History Graph

Search for Another Location

Airport:

Trip Planner

Search our weather history database for the weather conditions in past years. The results will help you decide how hot, cold, wet, or windy it might be!

Date:

Astronomy

Mar. 29, 2013 Rise Set
Actual Time 7:24 AM CDT 7:52 PM CDT
Civil Twilight 6:59 AM CDT 8:17 PM CDT
Nautical Twilight 6:29 AM CDT 8:47 PM CDT
Astronomical Twilight 5:59 AM CDT 9:18 PM CDT
Moon 10:45 PM CDT (3/29) 8:41 AM CDT (3/29)
Length of Visible Light 13h 18m
Length of Day
12h 28m
Waning Gibbous, 93% of the Moon is Illuminated
Mar 29
Waning Gibbous
Apr 2
Last Quarter
Apr 10
New
Apr 18
First Quarter
Apr 25
Full

Hourly Weather History & Observations

Time (CDT) Temp. Dew Point Humidity Pressure Visibility Wind Dir Wind Speed Gust Speed Precip Events Conditions
12:58 AM 58.8 °F 54.3 °F 85% 30.05 in 10.0 mi SSE 9.2 mph - N/A   Clear
1:58 AM 57.7 °F 54.3 °F 88% 30.05 in 10.0 mi SE 8.1 mph - N/A   Clear
2:58 AM 57.2 °F 54.0 °F 89% 30.05 in 10.0 mi SSE 8.1 mph - N/A   Clear
3:58 AM 55.9 °F 53.6 °F 92% 30.04 in 10.0 mi SSE 6.9 mph - N/A   Clear
4:58 AM 54.9 °F 53.4 °F 95% 30.03 in 10.0 mi SSE 8.1 mph - N/A   Clear
5:58 AM 54.3 °F 53.4 °F 97% 30.04 in 10.0 mi SSE 6.9 mph - N/A   Clear
6:58 AM 54.9 °F 54.3 °F 98% 30.05 in 10.0 mi South 11.5 mph - N/A   Overcast
7:58 AM 55.9 °F 55.0 °F 97% 30.07 in 10.0 mi South 11.5 mph - N/A   Overcast
8:58 AM 57.9 °F 56.3 °F 94% 30.06 in 10.0 mi South 17.3 mph - N/A   Mostly Cloudy
9:58 AM 63.0 °F 57.7 °F 83% 30.07 in 10.0 mi South 15.0 mph - N/A   Mostly Cloudy
10:58 AM 68.0 °F 58.1 °F 71% 30.07 in 10.0 mi South 16.1 mph 21.9 mph N/A   Clear
11:58 AM 69.8 °F 58.1 °F 66% 30.07 in 10.0 mi SSW 8.1 mph - N/A   Overcast
12:58 PM 73.6 °F 58.8 °F 60% 30.04 in 10.0 mi South 9.2 mph 18.4 mph N/A   Overcast
1:10 PM 73.4 °F 59.0 °F 61% 30.05 in 10.0 mi SSW 11.5 mph - N/A   Mostly Cloudy
1:58 PM 73.9 °F 58.3 °F 58% 30.03 in 10.0 mi South 12.7 mph - N/A   Mostly Cloudy
2:58 PM 74.3 °F 58.5 °F 58% 30.00 in 10.0 mi SSE 17.3 mph - N/A   Scattered Clouds
3:56 PM 72.7 °F 57.6 °F 59% 30.00 in 10.0 mi SSE 12.7 mph - N/A   Mostly Cloudy
4:58 PM 70.3 °F 57.9 °F 65% 29.99 in 10.0 mi SE 13.8 mph - N/A   Scattered Clouds
5:58 PM 70.7 °F 57.7 °F 63% 29.99 in 10.0 mi SE 13.8 mph - N/A   Scattered Clouds
6:58 PM 71.2 °F 57.4 °F 61% 29.96 in 10.0 mi SE 16.1 mph - N/A   Mostly Cloudy
7:37 PM 69.8 °F 57.2 °F 64% 29.97 in 10.0 mi SSE 10.4 mph - N/A Rain Light Rain
7:49 PM 68.0 °F 57.2 °F 68% 29.97 in 10.0 mi SSE 9.2 mph - N/A   Mostly Cloudy
7:58 PM 68.2 °F 57.4 °F 68% 29.96 in 10.0 mi SSE 11.5 mph - 0.00 in   Mostly Cloudy
8:58 PM 68.7 °F 56.5 °F 65% 29.95 in 10.0 mi South 24.2 mph 28.8 mph N/A   Mostly Cloudy
9:58 PM 66.2 °F 57.6 °F 74% 29.96 in 10.0 mi SSE 20.7 mph 28.8 mph N/A   Mostly Cloudy
10:58 PM 63.7 °F 57.0 °F 79% 29.96 in 10.0 mi South 16.1 mph 25.3 mph N/A   Clear
11:58 PM 63.9 °F 55.9 °F 75% 29.98 in 10.0 mi SSE 10.4 mph - N/A   Clear